Time,TemperatureF,DewpointF,PressureIn,WindDirection,WindDirectionDegrees,WindSpeedMPH,WindSpeedGustMPH,Humidity,HourlyPrecipIn,Conditions,Clouds,dailyrainin,SolarRadiationWatts/m^2,SoftwareType,DateUTC
2013-11-01 00:01:00,71.3,69.2,30.01,NNW,329,0.0,2.0,93,0.00,,,0.01,0,Wunderground v.1.15,2013-11-01 04:01:00,
2013-11-01 00:03:00,71.3,69.2,30.01,NNW,329,2.0,2.0,93,0.00,,,0.01,0,Wunderground v.1.15,2013-11-01 04:03:00,
2013-11-01 00:04:00,71.3,69.2,30.01,NW,321,1.0,2.0,93,0.00,,,0.01,0,Wunderground v.1.15,2013-11-01 04:04:00,
2013-11-01 00:05:00,71.3,69.2,30.01,NW,321,0.0,2.0,93,0.00,,,0.01,0,Wunderground v.1.15,2013-11-01 04:05:00,
2013-11-01 00:06:00,71.3,69.2,30.01,NW,321,0.0,2.0,93,0.00,,,0.01,0,Wunderground v.1.15,2013-11-01 04:06:00,
2013-11-01 00:08:00,71.2,69.1,30.01,NW,321,0.0,2.0,93,0.00,,,0.01,0,Wunderground v.1.15,2013-11-01 04:08:00,
2013-11-01 00:14:00,71.2,69.1,30.00,NW,320,0.0,1.0,93,0.00,,,0.01,0,Wunderground v.1.15,2013-11-01 04:14:00,
2013-11-01 00:20:00,71.1,69.0,30.00,NW,313,0.0,0.0,93,0.00,,,0.01,0,Wunderground v.1.15,2013-11-01 04:20:00,
2013-11-01 00:25:00,71.0,68.9,30.00,NW,314,1.0,1.0,93,0.00,,,0.01,0,Wunderground v.1.15,2013-11-01 04:25:00,
2013-11-01 00:31:00,71.0,69.2,30.00,NW,320,0.0,0.0,94,0.00,,,0.01,0,Wunderground v.1.15,2013-11-01 04:31:00,
2013-11-01 00:36:00,71.0,69.2,29.99,NNW,330,2.0,2.0,94,0.00,,,0.01,0,Wunderground v.1.15,2013-11-01 04:36:00,
2013-11-01 00:41:00,71.1,69.3,29.99,NNW,330,1.0,1.0,94,0.00,,,0.01,0,Wunderground v.1.15,2013-11-01 04:41:00,
2013-11-01 00:46:00,71.2,69.4,29.99,NNW,340,1.0,2.0,94,0.00,,,0.01,0,Wunderground v.1.15,2013-11-01 04:46:00,
2013-11-01 00:52:00,71.3,69.5,29.99,WNW,292,0.0,2.0,94,0.00,,,0.01,0,Wunderground v.1.15,2013-11-01 04:52:00,
2013-11-01 00:58:00,71.5,69.7,29.99,NNW,334,0.0,3.0,94,0.00,,,0.01,0,Wunderground v.1.15,2013-11-01 04:58:00,
2013-11-01 01:03:00,71.7,69.9,29.99,WNW,282,3.0,3.0,94,0.00,,,0.01,0,Wunderground v.1.15,2013-11-01 05:03:00,
2013-11-01 01:09:00,72.0,69.9,29.99,WNW,300,0.0,3.0,93,0.00,,,0.01,0,Wunderground v.1.15,2013-11-01 05:09:00,
2013-11-01 01:15:00,72.1,70.0,29.99,NNW,347,1.0,3.0,93,0.00,,,0.01,0,Wunderground v.1.15,2013-11-01 05:15:00,
2013-11-01 01:20:00,72.2,70.1,29.98,NW,322,1.0,3.0,93,0.00,,,0.01,0,Wunderground v.1.15,2013-11-01 05:20:00,
2013-11-01 01:26:00,72.2,70.1,29.98,NW,320,0.0,4.0,93,0.00,,,0.01,0,Wunderground v.1.15,2013-11-01 05:26:00,
2013-11-01 01:32:00,72.4,70.3,29.97,NNW,342,3.0,3.0,93,0.00,,,0.00,0,Wunderground v.1.15,2013-11-01 05:32:00,
2013-11-01 01:38:00,72.4,70.3,29.97,NNW,342,3.0,3.0,93,0.00,,,0.00,0,Wunderground v.1.15,2013-11-01 05:38:00,
2013-11-01 01:43:00,72.6,70.1,29.96,WNW,303,1.0,3.0,92,0.00,,,0.00,0,Wunderground v.1.15,2013-11-01 05:43:00,
2013-11-01 01:45:00,72.6,70.1,29.96,NNW,333,2.0,3.0,92,0.00,,,0.00,0,Wunderground v.1.15,2013-11-01 05:45:00,
2013-11-01 01:50:00,72.7,69.9,29.96,NNW,330,4.0,5.0,91,0.00,,,0.00,0,Wunderground v.1.15,2013-11-01 05:50:00,
2013-11-01 01:55:00,72.8,70.0,29.96,WNW,296,2.0,3.0,91,0.00,,,0.00,0,Wunderground v.1.15,2013-11-01 05:55:00,
2013-11-01 02:02:00,73.0,70.2,29.96,NNW,336,1.0,3.0,91,0.00,,,0.00,0,Wunderground v.1.15,2013-11-01 06:02:00,
2013-11-01 02:07:00,73.0,70.2,29.96,NNW,344,5.0,5.0,91,0.00,,,0.00,0,Wunderground v.1.15,2013-11-01 06:07:00,
2013-11-01 02:12:00,73.0,70.2,29.96,North,11,0.0,3.0,91,0.00,,,0.00,0,Wunderground v.1.15,2013-11-01 06:12:00,
2013-11-01 02:17:00,73.1,70.3,29.96,WNW,284,1.0,7.0,91,0.00,,,0.00,0,Wunderground v.1.15,2013-11-01 06:17:00,
2013-11-01 02:22:00,73.1,70.3,29.95,NW,319,2.0,3.0,91,0.00,,,0.00,0,Wunderground v.1.15,2013-11-01 06:22:00,
2013-11-01 02:27:00,73.1,70.3,29.96,North,349,3.0,6.0,91,0.00,,,0.00,0,Wunderground v.1.15,2013-11-01 06:27:00,
2013-11-01 02:32:00,73.1,70.3,29.96,NNW,333,4.0,4.0,91,0.00,,,0.00,0,Wunderground v.1.15,2013-11-01 06:32:00,
2013-11-01 02:37:00,73.1,70.3,29.95,WNW,296,1.0,8.0,91,0.00,,,0.00,0,Wunderground v.1.15,2013-11-01 06:37:00,
2013-11-01 02:42:00,73.0,70.2,29.95,NNW,336,4.0,5.0,91,0.00,,,0.00,0,Wunderground v.1.15,2013-11-01 06:42:00,
2013-11-01 02:47:00,73.0,70.2,29.95,NW,311,2.0,7.0,91,0.00,,,0.00,0,Wunderground v.1.15,2013-11-01 06:47:00,
2013-11-01 02:52:00,72.9,70.4,29.95,NNW,346,1.0,3.0,92,0.00,,,0.00,0,Wunderground v.1.15,2013-11-01 06:52:00,
2013-11-01 02:57:00,72.8,70.3,29.95,NNW,347,1.0,5.0,92,0.00,,,0.00,0,Wunderground v.1.15,2013-11-01 06:57:00,
2013-11-01 03:03:00,72.7,70.2,29.94,North,355,3.0,4.0,92,0.00,,,0.00,0,Wunderground v.1.15,2013-11-01 07:03:00,
2013-11-01 03:08:00,72.6,70.1,29.94,North,355,2.0,5.0,92,0.00,,,0.00,0,Wunderground v.1.15,2013-11-01 07:08:00,
2013-11-01 03:13:00,72.6,70.1,29.94,NNW,329,1.0,5.0,92,0.00,,,0.00,0,Wunderground v.1.15,2013-11-01 07:13:00,
2013-11-01 03:18:00,72.5,70.0,29.94,NNW,334,2.0,6.0,92,0.00,,,0.00,0,Wunderground v.1.15,2013-11-01 07:18:00,
2013-11-01 03:23:00,72.5,70.0,29.94,NNW,330,5.0,7.0,92,0.00,,,0.00,0,Wunderground v.1.15,2013-11-01 07:23:00,
2013-11-01 03:28:00,72.6,70.1,29.94,North,5,0.0,8.0,92,0.00,,,0.00,0,Wunderground v.1.15,2013-11-01 07:28:00,
2013-11-01 03:33:00,72.5,70.0,29.93,WNW,286,2.0,10.0,92,0.00,,,0.00,0,Wunderground v.1.15,2013-11-01 07:33:00,
2013-11-01 03:38:00,72.6,70.1,29.93,NNE,23,1.0,10.0,92,0.00,,,0.00,0,Wunderground v.1.15,2013-11-01 07:38:00,
2013-11-01 03:43:00,72.6,70.1,29.93,WNW,288,7.0,8.0,92,0.00,,,0.00,0,Wunderground v.1.15,2013-11-01 07:43:00,
2013-11-01 03:48:00,72.7,70.2,29.93,NNW,332,8.0,10.0,92,0.00,,,0.00,0,Wunderground v.1.15,2013-11-01 07:48:00,
2013-11-01 03:53:00,72.8,70.3,29.92,North,355,1.0,5.0,92,0.00,,,0.00,0,Wunderground v.1.15,2013-11-01 07:53:00,
2013-11-01 03:58:00,72.8,70.3,29.93,NNW,336,4.0,10.0,92,0.00,,,0.00,0,Wunderground v.1.15,2013-11-01 07:58:00,
2013-11-01 04:03:00,72.8,70.3,29.92,NNW,339,5.0,8.0,92,0.00,,,0.00,0,Wunderground v.1.15,2013-11-01 08:03:00,
2013-11-01 04:08:00,72.9,70.8,29.92,NNW,347,4.0,9.0,93,0.00,,,0.00,0,Wunderground v.1.15,2013-11-01 08:08:00,
2013-11-01 04:13:00,72.9,70.8,29.92,North,5,4.0,9.0,93,0.00,,,0.00,0,Wunderground v.1.15,2013-11-01 08:13:00,
2013-11-01 04:18:00,73.0,70.9,29.92,NNE,33,2.0,10.0,93,0.00,,,0.00,0,Wunderground v.1.15,2013-11-01 08:18:00,
2013-11-01 04:23:00,73.0,70.9,29.92,NW,315,5.0,9.0,93,0.00,,,0.00,0,Wunderground v.1.15,2013-11-01 08:23:00,
2013-11-01 04:28:00,73.1,70.6,29.92,NNW,343,5.0,9.0,92,0.00,,,0.00,0,Wunderground v.1.15,2013-11-01 08:28:00,
2013-11-01 04:33:00,73.3,70.8,29.92,NW,314,4.0,9.0,92,0.00,,,0.00,0,Wunderground v.1.15,2013-11-01 08:33:00,
2013-11-01 04:38:00,73.3,70.8,29.91,NW,313,7.0,10.0,92,0.00,,,0.00,0,Wunderground v.1.15,2013-11-01 08:38:00,
2013-11-01 04:43:00,73.2,70.7,29.91,North,355,2.0,10.0,92,0.00,,,0.00,0,Wunderground v.1.15,2013-11-01 08:43:00,
2013-11-01 04:48:00,73.3,70.8,29.91,NW,313,3.0,11.0,92,0.00,,,0.00,0,Wunderground v.1.15,2013-11-01 08:48:00,
2013-11-01 04:53:00,73.3,71.2,29.91,NNW,331,6.0,13.0,93,0.00,,,0.00,0,Wunderground v.1.15,2013-11-01 08:53:00,
2013-11-01 04:58:00,73.3,71.2,29.90,NW,313,3.0,13.0,93,0.00,,,0.00,0,Wunderground v.1.15,2013-11-01 08:58:00,
2013-11-01 05:03:00,73.2,71.1,29.90,NW,317,8.0,8.0,93,0.00,,,0.00,0,Wunderground v.1.15,2013-11-01 09:03:00,
2013-11-01 05:08:00,73.2,71.1,29.91,NNE,15,4.0,11.0,93,0.00,,,0.00,0,Wunderground v.1.15,2013-11-01 09:08:00,
2013-11-01 05:13:00,73.2,71.1,29.91,West,280,5.0,8.0,93,0.00,,,0.00,0,Wunderground v.1.15,2013-11-01 09:13:00,
2013-11-01 05:18:00,73.2,71.1,29.90,West,281,4.0,12.0,93,0.00,,,0.00,0,Wunderground v.1.15,2013-11-01 09:18:00,
2013-11-01 05:23:00,73.2,71.1,29.90,NNW,328,6.0,9.0,93,0.00,,,0.00,0,Wunderground v.1.15,2013-11-01 09:23:00,
2013-11-01 05:28:00,73.1,71.0,29.90,North,5,5.0,11.0,93,0.00,,,0.00,0,Wunderground v.1.15,2013-11-01 09:28:00,
2013-11-01 05:33:00,73.1,71.0,29.90,NW,321,5.0,9.0,93,0.00,,,0.00,0,Wunderground v.1.15,2013-11-01 09:33:00,
2013-11-01 05:38:00,73.1,71.3,29.90,WNW,297,4.0,10.0,94,0.00,,,0.00,0,Wunderground v.1.15,2013-11-01 09:38:00,
2013-11-01 05:43:00,73.1,71.3,29.90,North,355,5.0,10.0,94,0.00,,,0.00,0,Wunderground v.1.15,2013-11-01 09:43:00,
2013-11-01 05:48:00,73.1,71.0,29.90,WNW,295,4.0,10.0,93,0.00,,,0.00,0,Wunderground v.1.15,2013-11-01 09:48:00,
2013-11-01 05:53:00,73.1,71.0,29.90,NNW,331,2.0,13.0,93,0.00,,,0.00,0,Wunderground v.1.15,2013-11-01 09:53:00,
2013-11-01 05:59:00,73.1,71.0,29.89,North,355,10.0,13.0,93,0.00,,,0.00,0,Wunderground v.1.15,2013-11-01 09:59:00,
2013-11-01 06:04:00,73.1,71.0,29.89,NNW,327,5.0,10.0,93,0.00,,,0.00,0,Wunderground v.1.15,2013-11-01 10:04:00,
2013-11-01 06:09:00,73.3,71.2,29.89,WNW,291,7.0,13.0,93,0.00,,,0.00,0,Wunderground v.1.15,2013-11-01 10:09:00,
2013-11-01 06:14:00,73.2,71.1,29.88,WNW,300,5.0,11.0,93,0.00,,,0.00,0,Wunderground v.1.15,2013-11-01 10:14:00,
2013-11-01 06:19:00,73.3,71.2,29.89,NNW,331,6.0,12.0,93,0.00,,,0.00,0,Wunderground v.1.15,2013-11-01 10:19:00,
2013-11-01 06:24:00,73.3,71.2,29.90,NW,324,5.0,10.0,93,0.00,,,0.00,0,Wunderground v.1.15,2013-11-01 10:24:00,
2013-11-01 06:29:00,73.3,71.2,29.90,North,349,4.0,10.0,93,0.00,,,0.00,0,Wunderground v.1.15,2013-11-01 10:29:00,
2013-11-01 06:34:00,73.3,71.2,29.89,WNW,296,6.0,13.0,93,0.00,,,0.00,0,Wunderground v.1.15,2013-11-01 10:34:00,
2013-11-01 06:39:00,73.2,71.1,29.90,NNW,334,2.0,14.0,93,0.00,,,0.00,0,Wunderground v.1.15,2013-11-01 10:39:00,
2013-11-01 06:44:00,73.3,71.2,29.90,West,275,3.0,10.0,93,0.00,,,0.00,0,Wunderground v.1.15,2013-11-01 10:44:00,
2013-11-01 06:49:00,73.3,71.2,29.89,NW,304,6.0,11.0,93,0.00,,,0.00,0,Wunderground v.1.15,2013-11-01 10:49:00,
2013-11-01 06:54:00,73.3,71.2,29.89,NNW,340,3.0,17.0,93,0.00,,,0.00,0,Wunderground v.1.15,2013-11-01 10:54:00,
2013-11-01 06:59:00,73.3,71.2,29.89,NNW,342,5.0,17.0,93,0.00,,,0.00,0,Wunderground v.1.15,2013-11-01 10:59:00,
2013-11-01 07:04:00,73.2,71.1,29.89,North,355,6.0,10.0,93,0.00,,,0.00,0,Wunderground v.1.15,2013-11-01 11:04:00,
2013-11-01 07:09:00,73.2,71.1,29.90,NNW,333,7.0,12.0,93,0.00,,,0.00,0,Wunderground v.1.15,2013-11-01 11:09:00,
2013-11-01 07:14:00,73.3,71.2,29.90,WNW,302,6.0,16.0,93,0.00,,,0.00,0,Wunderground v.1.15,2013-11-01 11:14:00,
2013-11-01 07:19:00,73.3,71.2,29.90,NNW,333,5.0,16.0,93,0.00,,,0.00,0,Wunderground v.1.15,2013-11-01 11:19:00,
2013-11-01 07:24:00,73.2,71.1,29.90,NNW,346,3.0,10.0,93,0.00,,,0.00,0,Wunderground v.1.15,2013-11-01 11:24:00,
2013-11-01 07:29:00,73.2,71.1,29.89,NNW,338,5.0,10.0,93,0.00,,,0.00,0,Wunderground v.1.15,2013-11-01 11:29:00,
2013-11-01 07:34:00,73.2,71.1,29.89,West,275,5.0,10.0,93,0.00,,,0.00,0,Wunderground v.1.15,2013-11-01 11:34:00,
2013-11-01 07:40:00,73.1,71.0,29.89,NNW,334,4.0,5.0,93,0.00,,,0.00,0,Wunderground v.1.15,2013-11-01 11:40:00,
2013-11-01 07:45:00,73.1,71.0,29.90,North,355,4.0,8.0,93,0.00,,,0.00,0,Wunderground v.1.15,2013-11-01 11:45:00,
2013-11-01 07:50:00,73.2,71.1,29.90,North,355,4.0,6.0,93,0.00,,,0.00,0,Wunderground v.1.15,2013-11-01 11:50:00,
2013-11-01 07:55:00,73.1,71.0,29.90,NNW,334,3.0,10.0,93,0.00,,,0.00,7,Wunderground v.1.15,2013-11-01 11:55:00,
2013-11-01 08:00:00,73.1,71.0,29.90,NNW,342,5.0,5.0,93,0.00,,,0.00,9,Wunderground v.1.15,2013-11-01 12:00:00,
2013-11-01 08:05:00,73.1,71.0,29.90,NNW,334,4.0,13.0,93,0.00,,,0.00,12,Wunderground v.1.15,2013-11-01 12:05:00,
2013-11-01 08:10:00,73.1,71.0,29.91,NE,35,2.0,5.0,93,0.00,,,0.00,19,Wunderground v.1.15,2013-11-01 12:10:00,
2013-11-01 08:15:00,73.1,71.0,29.91,NE,44,10.0,14.0,93,0.00,,,0.00,28,Wunderground v.1.15,2013-11-01 12:15:00,
2013-11-01 08:20:00,73.1,71.0,29.91,NW,304,8.0,8.0,93,0.00,,,0.00,47,Wunderground v.1.15,2013-11-01 12:20:00,
2013-11-01 08:25:00,73.2,71.1,29.91,NW,304,11.0,12.0,93,0.00,,,0.00,62,Wunderground v.1.15,2013-11-01 12:25:00,
2013-11-01 08:30:00,73.3,71.2,29.91,NNW,337,4.0,5.0,93,0.00,,,0.00,76,Wunderground v.1.15,2013-11-01 12:30:00,
2013-11-01 08:35:00,73.5,71.4,29.91,NW,308,8.0,8.0,93,0.00,,,0.00,97,Wunderground v.1.15,2013-11-01 12:35:00,
2013-11-01 08:40:00,73.8,71.3,29.91,NNW,346,3.0,5.0,92,0.00,,,0.00,120,Wunderground v.1.15,2013-11-01 12:40:00,
2013-11-01 08:45:00,74.0,71.5,29.92,WNW,300,4.0,11.0,92,0.00,,,0.00,148,Wunderground v.1.15,2013-11-01 12:45:00,
2013-11-01 08:50:00,74.2,71.4,29.92,NNE,17,2.0,5.0,91,0.00,,,0.00,165,Wunderground v.1.15,2013-11-01 12:50:00,
2013-11-01 08:55:00,74.4,71.3,29.92,NNE,24,2.0,15.0,90,0.00,,,0.00,128,Wunderground v.1.15,2013-11-01 12:55:00,
2013-11-01 09:00:00,74.6,71.8,29.92,NW,324,5.0,5.0,91,0.00,,,0.00,192,Wunderground v.1.15,2013-11-01 13:00:00,
2013-11-01 09:05:00,74.7,71.6,29.93,NW,320,6.0,10.0,90,0.00,,,0.00,141,Wunderground v.1.15,2013-11-01 13:05:00,
2013-11-01 09:10:00,74.9,71.8,29.92,NE,53,2.0,7.0,90,0.00,,,0.00,144,Wunderground v.1.15,2013-11-01 13:10:00,
2013-11-01 09:15:00,74.9,71.8,29.92,NNE,16,2.0,12.0,90,0.00,,,0.00,84,Wunderground v.1.15,2013-11-01 13:15:00,
2013-11-01 09:20:00,74.8,71.3,29.92,NNE,30,5.0,9.0,89,0.00,,,0.00,77,Wunderground v.1.15,2013-11-01 13:20:00,
2013-11-01 09:25:00,74.8,71.3,29.93,NNW,329,4.0,9.0,89,0.00,,,0.00,127,Wunderground v.1.15,2013-11-01 13:25:00,
2013-11-01 09:30:00,74.9,71.8,29.92,NNE,17,2.0,5.0,90,0.00,,,0.00,176,Wunderground v.1.15,2013-11-01 13:30:00,
2013-11-01 09:36:00,75.1,71.6,29.93,NNW,327,5.0,10.0,89,0.00,,,0.00,190,Wunderground v.1.15,2013-11-01 13:36:00,
2013-11-01 09:41:00,75.5,72.0,29.93,WNW,287,3.0,10.0,89,0.00,,,0.00,207,Wunderground v.1.15,2013-11-01 13:41:00,
2013-11-01 09:46:00,75.8,72.0,29.93,NNW,348,5.0,13.0,88,0.00,,,0.00,190,Wunderground v.1.15,2013-11-01 13:46:00,
2013-11-01 09:51:00,75.9,72.1,29.93,NNW,331,4.0,7.0,88,0.00,,,0.00,285,Wunderground v.1.15,2013-11-01 13:51:00,
2013-11-01 09:56:00,76.2,72.0,29.93,North,355,7.0,10.0,87,0.00,,,0.00,415,Wunderground v.1.15,2013-11-01 13:56:00,
2013-11-01 10:02:00,76.7,72.2,29.92,WNW,300,5.0,8.0,86,0.00,,,0.00,234,Wunderground v.1.15,2013-11-01 14:02:00,
2013-11-01 10:07:00,76.7,71.8,29.92,NW,319,3.0,14.0,85,0.00,,,0.00,169,Wunderground v.1.15,2013-11-01 14:07:00,
2013-11-01 10:12:00,76.5,72.0,29.93,NW,315,3.0,12.0,86,0.00,,,0.00,232,Wunderground v.1.15,2013-11-01 14:12:00,
2013-11-01 10:17:00,76.5,72.0,29.92,NNW,332,8.0,12.0,86,0.00,,,0.00,279,Wunderground v.1.15,2013-11-01 14:17:00,
2013-11-01 10:22:00,76.6,71.7,29.92,NNW,343,3.0,11.0,85,0.00,,,0.00,297,Wunderground v.1.15,2013-11-01 14:22:00,
2013-11-01 10:28:00,76.8,71.6,29.92,NNW,336,4.0,12.0,84,0.00,,,0.00,292,Wunderground v.1.15,2013-11-01 14:28:00,
2013-11-01 10:33:00,76.9,71.7,29.92,NE,45,5.0,12.0,84,0.00,,,0.00,262,Wunderground v.1.15,2013-11-01 14:33:00,
2013-11-01 10:38:00,76.9,71.3,29.92,NW,317,6.0,13.0,83,0.00,,,0.00,211,Wunderground v.1.15,2013-11-01 14:38:00,
2013-11-01 10:43:00,76.7,71.1,29.92,NW,317,8.0,13.0,83,0.00,,,0.00,181,Wunderground v.1.15,2013-11-01 14:43:00,
2013-11-01 10:48:00,76.6,71.0,29.92,North,360,3.0,13.0,83,0.00,,,0.00,230,Wunderground v.1.15,2013-11-01 14:48:00,
2013-11-01 10:53:00,76.7,71.1,29.91,North,5,3.0,9.0,83,0.00,,,0.00,236,Wunderground v.1.15,2013-11-01 14:53:00,
2013-11-01 10:58:00,76.6,71.4,29.91,NE,46,4.0,11.0,84,0.00,,,0.00,160,Wunderground v.1.15,2013-11-01 14:58:00,
2013-11-01 11:03:00,76.4,71.2,29.91,NNW,334,4.0,5.0,84,0.00,,,0.00,139,Wunderground v.1.15,2013-11-01 15:03:00,
2013-11-01 11:08:00,76.3,71.1,29.92,NW,321,3.0,11.0,84,0.00,,,0.00,121,Wunderground v.1.15,2013-11-01 15:08:00,
2013-11-01 11:13:00,76.1,71.3,29.91,NNW,330,4.0,9.0,85,0.00,,,0.00,105,Wunderground v.1.15,2013-11-01 15:13:00,
2013-11-01 11:18:00,75.9,71.1,29.91,West,262,3.0,9.0,85,0.00,,,0.00,100,Wunderground v.1.15,2013-11-01 15:18:00,
2013-11-01 11:23:00,75.7,70.9,29.91,NE,46,5.0,11.0,85,0.00,,,0.00,88,Wunderground v.1.15,2013-11-01 15:23:00,
2013-11-01 11:28:00,75.6,70.8,29.91,NNW,346,2.0,11.0,85,0.00,,,0.00,91,Wunderground v.1.15,2013-11-01 15:28:00,
2013-11-01 11:33:00,75.5,71.0,29.91,NW,311,7.0,10.0,86,0.00,,,0.00,188,Wunderground v.1.15,2013-11-01 15:33:00,
2013-11-01 11:38:00,75.6,70.8,29.90,NNW,344,6.0,11.0,85,0.00,,,0.00,211,Wunderground v.1.15,2013-11-01 15:38:00,
2013-11-01 11:43:00,75.8,71.0,29.90,NNW,330,8.0,14.0,85,0.00,,,0.00,181,Wunderground v.1.15,2013-11-01 15:43:00,
2013-11-01 11:48:00,75.8,71.0,29.90,West,267,10.0,14.0,85,0.00,,,0.00,295,Wunderground v.1.15,2013-11-01 15:48:00,
2013-11-01 11:53:00,75.8,70.6,29.90,WNW,289,8.0,11.0,84,0.00,,,0.00,142,Wunderground v.1.15,2013-11-01 15:53:00,
2013-11-01 11:58:00,75.8,70.6,29.90,WNW,284,4.0,12.0,84,0.00,,,0.00,142,Wunderground v.1.15,2013-11-01 15:58:00,
2013-11-01 12:03:00,75.7,70.5,29.90,North,355,7.0,10.0,84,0.00,,,0.00,190,Wunderground v.1.15,2013-11-01 16:03:00,
2013-11-01 12:08:00,75.7,70.5,29.89,ENE,74,5.0,17.0,84,0.00,,,0.00,223,Wunderground v.1.15,2013-11-01 16:08:00,
2013-11-01 12:13:00,75.8,70.3,29.89,NNW,329,2.0,11.0,83,0.00,,,0.00,262,Wunderground v.1.15,2013-11-01 16:13:00,
2013-11-01 12:18:00,75.8,69.9,29.88,North,350,7.0,11.0,82,0.00,,,0.00,236,Wunderground v.1.15,2013-11-01 16:18:00,
2013-11-01 15:50:00,75.3,70.1,29.80,NNW,338,5.0,5.0,84,0.00,,,0.00,120,Wunderground v.1.15,2013-11-01 19:50:00,
2013-11-01 15:55:00,75.2,70.0,29.80,NW,321,7.0,13.0,84,0.00,,,0.00,134,Wunderground v.1.15,2013-11-01 19:55:00,
2013-11-01 16:02:00,75.2,70.0,29.79,WNW,285,4.0,6.0,84,0.00,,,0.00,162,Wunderground v.1.15,2013-11-01 20:02:00,
2013-11-01 16:07:00,75.2,70.4,29.79,NNW,336,6.0,10.0,85,0.00,,,0.00,109,Wunderground v.1.15,2013-11-01 20:07:00,
2013-11-01 16:12:00,75.2,70.4,29.80,North,360,4.0,5.0,85,0.00,,,0.00,88,Wunderground v.1.15,2013-11-01 20:12:00,
2013-11-01 16:17:00,75.1,70.3,29.80,NE,40,2.0,12.0,85,0.00,,,0.00,84,Wunderground v.1.15,2013-11-01 20:17:00,
2013-11-01 16:22:00,75.0,70.5,29.80,NNW,336,1.0,4.0,86,0.00,,,0.00,44,Wunderground v.1.15,2013-11-01 20:22:00,
2013-11-01 16:27:00,74.8,70.3,29.80,NNW,330,2.0,9.0,86,0.00,,,0.00,42,Wunderground v.1.15,2013-11-01 20:27:00,
2013-11-01 16:32:00,74.8,70.3,29.80,NW,322,2.0,6.0,86,0.00,,,0.00,44,Wunderground v.1.15,2013-11-01 20:32:00,
2013-11-01 16:37:00,74.8,70.3,29.80,NNW,345,3.0,9.0,86,0.00,,,0.00,44,Wunderground v.1.15,2013-11-01 20:37:00,
2013-11-01 16:42:00,74.7,70.2,29.80,North,355,2.0,3.0,86,0.00,,,0.00,26,Wunderground v.1.15,2013-11-01 20:42:00,
2013-11-01 16:47:00,74.7,70.6,29.80,NNW,327,4.0,7.0,87,0.00,,,0.00,26,Wunderground v.1.15,2013-11-01 20:47:00,
2013-11-01 16:52:00,74.6,70.1,29.80,NNW,336,6.0,7.0,86,0.00,,,0.00,33,Wunderground v.1.15,2013-11-01 20:52:00,
2013-11-01 16:58:00,74.6,70.1,29.80,NW,311,6.0,8.0,86,0.00,,,0.00,26,Wunderground v.1.15,2013-11-01 20:58:00,
2013-11-01 17:03:00,74.6,70.5,29.80,West,266,4.0,6.0,87,0.00,,,0.00,40,Wunderground v.1.15,2013-11-01 21:03:00,